{"data":{"norad_id":43619,"intl_designator":"2018-071B","name":"NOVASAR 1","alt_names":[],"object_type":"PAYLOAD","status":"ACTIVE","operator":null,"country":"UK","launch_date":"2018-09-16","launch_site_code":"SRILR","launch_vehicle":null,"mission":null,"orbit_class":"UNKNOWN","rcs_meters":null,"size_class":null,"mass_kg":null,"dimensions":null,"purposes":[],"wikipedia_slug":null,"has_3d_model":false,"image_url":null,"decayed_at":null,"tle_current":{"epoch":"2026-09-20T05:10:58.298592Z","epoch_age_seconds":79501,"freshness":"FRESH","line1":"1 43619U 18071B   26263.21595253 -.00000550  00000+0 -43825-4 0  9998","line2":"2 43619  97.4908 131.5668 0002011  81.3286 278.8164 14.96326054437149","mean_motion":14.96326054,"eccentricity":0.0002011,"inclination_deg":97.4908,"raan_deg":131.5668,"arg_perigee_deg":81.3286,"mean_anomaly_deg":278.8164,"bstar":-4.3825e-5,"rev_number":43714,"period_min":96.23570986755,"perigee_km":576.86091233169,"apogee_km":579.65877514224,"semimajor_km":6956.396843737,"source":"CELESTRAK","updated_at":"2026-09-20T09:00:14.361701Z"}}}